Погода в Суре

Погода в Суре : погода сейчас, прогноз погоды и архив. Всё, что Вы хотите узнать о погоде в Суре!

Поиск расширенной информации на нашем сайте:

Другие новости

Новости СМИ2

Главная страница сайта

Новости сайта

03.07.2017

Напоминаем, что на нашем специализированном сайте Метеоцентр.Азия вы можете получить высокодетализированные автоматические прогнозы погоды по пунктам России, СНГ и мира в авиационном формате (включающие направление и скорость ветра, видимость, явления погоды, количество и форму облачности, нижнюю и верхнюю границу облачности).


Погода в Суре - сегодня

Время (UTC), дата Ветер
(°,м/с) 
Видим.   Явления Облачность Т
(°С)
Тd
(°С)
f(%) Тe
(°С)
Pmin
(гПа)
dP
(гПа)
Po
(мм)
O2
(г/м3)
Тmin Tmax R s Состояние
почвы
21 19.09.18 110 (В) 20000 м    ясно 
+2.2 +1.6 96 +3  1007.7  750  300           
00 20.09.18 140 (ЮВ) 2000 м  дымка  ясно 
-0.1 -0.6 96 +1  1007.8  750  302           
06 20.09.18 170 (Ю) 0500 м  туман  ?/?  
+2.6 +2.2 97 +3  1008.7  0.7  751  299           
09 20.09.18 130 (ЮВ) 20000 м  в посл. час туман  3/3 300 м верхняя 
[Cu med, cong|Ci fib]
+10.5 +10.2 98 +12  1007.8  -0.7  750  289           
18 20.09.18 120 (ЮВ) 20000 м    3/3 1000 м 
[Sc]
+8.1 +6.4 89 +9  1008.4  751  293           
21 20.09.18 170 (Ю) 20000 м    9/9 480 м 
[Sc]
+10.3 +8.1 86 +10  1007.5  -0.8  750  290           
03 21.09.18 170 (Ю) 20000 м  в посл. час ливневой дождь  10/10 360 м кучево-дожд. 
[Cb cap]
+10.7 +9.7 94 +11  1005.8  -0.7  749  289  +6.5    0.1     
18 21.09.18 120 (ЮВ) 20000 м    9/9 2000 м средняя 
[Ac lent]
+8.6 +5.4 80 +9  1009.8  0.5  752  293           
21 21.09.18 190 (Ю) 20000 м    9/9 2000 м средняя 
[Ac lent]
+9.5 +7 84 +10  1009.7  -0.1  752  292           
00 22.09.18 220 (ЮЗ) 20000 м    3/3 2000 м средняя, верхняя 
[Ac trans|Ci fib]
+9.9 +7.3 84 +9  1010.1  0.4  752  291           
06 22.09.18 170 (Ю) 20000 м    9/9 2000 м средняя 
[Ac trans]
+12.9 +10.5 85 +15  1010.3  -0.4  752  287  +6.7         
09 22.09.18 200 (Ю) 20000 м    9/0 верхняя 
[Cs]
+19.6 +13.2 67 +26  1008.5  -1.7  751  280           
18 22.09.18 170 (Ю) 20000 м    ясно 
+17.3 +13.6 79 +24  1005  -1.2  748  281           
21 22.09.18 190 (Ю) 20000 м    5/0 верхняя 
[Ci]
+16.4 +13.7 84 +23  1004.2  -0.8  748  281           
00 23.09.18 190 (Ю) 20000 м    ясно 
+15.4 +13.4 88 +21  1003.8  -0.4  747  282           
03 23.09.18 180 (Ю) 20000 м    ясно 
+15 +13.2 89 +21  1002.9  -0.9  747  283  +15         
06 23.09.18 160 (Ю) 20000 м    8/4 600 м средняя 
[Cu Sc|Ac lent]
+17.1 +13.8 81 +24  1001.8  -1.1  746  280  +14.8         
09 23.09.18 160 (Ю) 5{10}  20000 м    4/1 600 м верхняя 
[Cu med, cong|Cc]
+19.7 +13.5 67 +26  999.9  -1.8  745  277           
15 23.09.18 180 (Ю) 5{12}  20000 м  в посл. час гроза  9/6 300 м кучево-дожд., средняя, верхняя 
[Cb cap|Ac inh|Cs]
+19.6 +11.9 61 +24  996.7  -1.5  742  277    +22.2       
21 23.09.18 250 (З) 10 км  {ливн. осадки}  10/6 300 м кучево-дожд., средняя 
[Cb cap|Ac lent]
+9.6 +8.3 92 +9  1000  1.8  744  288           
09 24.09.18 190 (Ю) 20000 м    9/3 1000 м верхняя 
[Cu med, cong|Cs]
+10.9 +6.8 76 +10  1003.7  0.2  747  288           
12 24.09.18 190 (Ю) 20000 м    6/5 1000 м верхняя 
[Cu Sc|Ci fib]
+12.7 +6.4 65 +13  1003.9  0.2  747  287           
18 24.09.18 160 (Ю) 20000 м  {ливн. осадки}  9/3 1000 м средняя 
[Sc diur, vesp|Ac trans]
+6.5 +5.7 95 +6  1005.2  0.2  748  294           
21 24.09.18 170 (Ю) 20000 м    9/4 1000 м средняя 
[Sc|Ac trans]
+5.5 +4.7 95 +6  1005.6  0.3  749  295           
06 25.09.18 150 (ЮВ) 10 км    10/10 240 м 
[St]
+7.2 +5.9 91 +6  1005.1  748  293           
Время (UTC), дата Ветер
(°,м/с) 
Видим.   Явления Облачность Т
(°С)
Тd
(°С)
f(%) Тe
(°С)
Pmin
(гПа)
dP
(гПа)
Po
(мм)
O2
(г/м3)
Тmin Tmax R s Состояние
почвы

Для получения пояснительной информации подведите курсор к названию столбца.

ПОГОДА в Суре - архив

Всё, что Вы хотите узнать о погоде в Суре - удобно и подробно!

Выберите нужную дату (начиная с 1 января 2015* года) и нажмите кнопку "Найти".
Будут отображены архивные сводки погоды по пункту Сура, начиная с указанной даты.


Отображать данные в формате CSV (для использования в таблицах Excel)


Внимание! Наш архив погоды предназначен исключительно для личного некоммерческого использования в познавательных целях. Если Вам необходимы официальные справки о состоянии погоды (для производственных, юридических, коммерческих и т.п. целей), обращайтесь в органы Росгидромета.

*Примечание: данная дата относится к архиву по метеостанциям СССР (Россия, СНГ, Балтия).
Архив по метеостанциям Зарубежной Европы и Азии (кроме Китая) хранится 10 дней, по другим регионам земного шара (Китай, Африка, Америка, Австралия, Океания) - 1 день.

Сура - район местоположения метеостанции


Название, широта, долгота, высота метеостанции:
Сура 63.6°ш. 45.6°д. 62 м над ур. моря [Российская Федерация]

Дополнительная информация

В oтличие oт бoльшинства пoгoдных сайтoв мы публикуем пoдрoбную метеoинфoрмацию в детальнoм прoфессиoнальнoм фoрмате.

Характеристики температуры и влажнoсти вoздуха измеряются на высoте 2 м в тени вдали oт зданий и деревьев.
Скoрoсть ветра измеряется на высoте 10 м (на урoвне рoста челoвека скoрoсть ветра ниже в 1.5-2 раза). Если метеoстанция нахoдится в гoрoде или в лесу, тo скoрoсть ветра занижена на 2-4 м/с пo сравнению с oткрытым местoм. Скoрoсть ветра над акватoриями крупных рек и oзёр, а также на вершинах хoлмoв на 2-5 м/с выше, чем в oбычных услoвиях.
Атмoсфернoе давление в разных тoчках местнoсти мoжет значительнo oтличаться oт давления на метеoстанции, в зависимoсти oт услoвий рельефа (при пoдъёме на 10 м давление пoнижается примернo на 1 мм рт.ст.).